"Pseudo-MPEC" for LA08qz0

Created 2025 May 24 15:31:08 UT using Find_Orb

Click here for an explanation of pseudo-MPECs

 
 Astrometry: 
     LA08qz0* C2025 05 21.70219115 24 25.774-36 36 59.98   ~5MM2 16.6 GVNEOCPP07
     LA08qz0  C2025 05 21.75320616 19 05.599-27 14 02.04   ~5MM2 16.5 GVNEOCPP07
     LA08qz0  C2025 05 21.76645616 31 11.208-24 40 48.04   ~5MM2 16.3 GVNEOCPP07
     LA08qz0  C2025 05 21.76882316 33 15.410-24 13 31.04   ~5MM2 16.6 GVNEOCPP07
     LA08qz0  C2025 05 21.84468817 26 51.384-10 52 38.89   ~5MM2 17.6 GVNEOCPP07
     LA08qz0  C2025 05 21.84750017 28 26.057-10 26 51.68   ~5MM2 17.5 GVNEOCPP07
     LA08qz0  C2025 05 21.90583817 56 17.815-02 43 21.86   ~5MM2 18.2 GVNEOCPP07
     LA08qz0  C2025 05 21.90790017 57 08.153-02 29 21.48   ~5MM2 18.1 GVNEOCPP07

Station data:
(P07) Space Surveillance Telescope, HEH Station  (S21.895685 E114.089870)
   Australia/WA.  Observers M. Blythe, R. Brungard, P. Festler, T. McVey, J.
   Paige, G. Spitz, L. Banks. Measurers M. Cornell, M. Kotson, R. Rios, J.
   Ruprecht, J. Vaillancourt, J. Varey, H. Viggh, D. Woods. 3.5-m f/1.0
   reflector + CCD.

Orbital elements:  LA08qz0
   Perigee 2025 May 21.71552 +/- 3.74e-5 TT = 17:10:21 (JD 2460817.21552)
Epoch 2025 May 22.0 TT = JDT 2460817.5                           AutoNEOCP
q139789.792 +/- 256                 (J2000 equator)
H   31.36 G 0.15                    Peri.  310.85778 +/- 0.012
                                    Node   273.52982 +/- 0.0039
e  22.8107174 +/- 0.131             Incl.   47.54915 +/- 0.0026
From 8 observations 2025 May 21 (4.9 hr); mean residual 0".21
Residuals in arcseconds: 
250521 P07  .19-  .05+    250521 P07  .19-  .05-    250521 P07  .13-  .10+    
250521 P07  .01+  .23-    250521 P07  .15-  .34-    250521 P07  .00   .20-    
250521 P07  .01+  .20-    250521 P07  .23+  .51+    

Ephemerides (geocentric):
Date (UTC) HH   RA             Dec           delta  r     elong  mag " sig PA
---- --------  ------------   ------------  ------ ------ -----  --- --------
2025 05 24 16  20 09 28.476   +27 49 48.26  .01357 1.0160 103.6 24.7 37.0  72
2025 05 24 17  20 09 40.020   +27 51 59.53  .01376 1.0161 103.5 24.7 37.0  72
2025 05 24 18  20 09 51.250   +27 54 07.14  .01395 1.0161 103.5 24.8 37.1  72
2025 05 24 19  20 10 02.178   +27 56 11.23  .01414 1.0162 103.5 24.8 37.2  72
2025 05 24 20  20 10 12.815   +27 58 11.93  .01433 1.0162 103.5 24.8 37.3  72
2025 05 24 21  20 10 23.173   +28 00 09.39  .01452 1.0163 103.4 24.8 37.3  72
2025 05 24 22  20 10 33.262   +28 02 03.72  .01471 1.0163 103.4 24.9 37.4  72
2025 05 24 23  20 10 43.093   +28 03 55.05  .01490 1.0164 103.4 24.9 37.5  72
2025 05 25 00  20 10 52.674   +28 05 43.50  .01509 1.0164 103.4 24.9 37.5  72
2025 05 25 01  20 11 02.015   +28 07 29.17  .01528 1.0164 103.4 25.0 37.6  72
2025 05 25 02  20 11 11.125   +28 09 12.16  .01547 1.0165 103.3 25.0 37.6  72
2025 05 25 03  20 11 20.011   +28 10 52.57  .01566 1.0165 103.3 25.0 37.7  72
2025 05 25 04  20 11 28.681   +28 12 30.50  .01584 1.0166 103.3 25.0 37.8  72
2025 05 25 05  20 11 37.144   +28 14 06.04  .01603 1.0166 103.3 25.1 37.8  72
2025 05 25 06  20 11 45.405   +28 15 39.26  .01622 1.0167 103.3 25.1 37.9  72
2025 05 25 07  20 11 53.472   +28 17 10.25  .01641 1.0168 103.3 25.1 37.9  72
2025 05 25 08  20 12 01.351   +28 18 39.08  .01660 1.0168 103.3 25.1 38.0  72
2025 05 25 09  20 12 09.048   +28 20 05.83  .01679 1.0169 103.2 25.2 38.0  72
2025 05 25 10  20 12 16.570   +28 21 30.57  .01698 1.0169 103.2 25.2 38.1  72
2025 05 25 11  20 12 23.922   +28 22 53.37  .01717 1.0170 103.2 25.2 38.1  72
2025 05 25 12  20 12 31.109   +28 24 14.29  .01736 1.0170 103.2 25.2 38.2  72
2025 05 25 13  20 12 38.136   +28 25 33.38  .01755 1.0171 103.2 25.3 38.2  72
2025 05 25 14  20 12 45.010   +28 26 50.71  .01774 1.0171 103.2 25.3 38.3  72
2025 05 25 15  20 12 51.733   +28 28 06.34  .01793 1.0172 103.2 25.3 38.3  72
2025 05 25 16  20 12 58.312   +28 29 20.32  .01812 1.0172 103.2 25.3 38.4  72
2025 05 25 17  20 13 04.749   +28 30 32.69  .01831 1.0173 103.2 25.4 38.4  72
2025 05 25 18  20 13 11.051   +28 31 43.52  .01850 1.0173 103.2 25.4 38.5  72
2025 05 25 19  20 13 17.219   +28 32 52.83  .01869 1.0174 103.2 25.4 38.5  72
2025 05 25 20  20 13 23.260   +28 34 00.69  .01888 1.0174 103.2 25.4 38.6  72
2025 05 25 21  20 13 29.175   +28 35 07.14  .01907 1.0175 103.2 25.4 38.6  71
2025 05 25 22  20 13 34.969   +28 36 12.20  .01925 1.0175 103.2 25.5 38.6  71
2025 05 25 23  20 13 40.646   +28 37 15.94  .01944 1.0176 103.2 25.5 38.7  71
2025 05 26 00  20 13 46.208   +28 38 18.38  .01963 1.0176 103.2 25.5 38.7  71
2025 05 26 01  20 13 51.658   +28 39 19.56  .01982 1.0177 103.2 25.5 38.8  71
2025 05 26 02  20 13 57.001   +28 40 19.51  .02001 1.0178 103.2 25.5 38.8  71
2025 05 26 03  20 14 02.238   +28 41 18.28  .02020 1.0178 103.2 25.6 38.8  71
2025 05 26 04  20 14 07.373   +28 42 15.89  .02039 1.0179 103.2 25.6 38.9  71
2025 05 26 05  20 14 12.408   +28 43 12.37  .02058 1.0179 103.2 25.6 38.9  71
2025 05 26 06  20 14 17.346   +28 44 07.77  .02077 1.0180 103.2 25.6 38.9  71
2025 05 26 07  20 14 22.190   +28 45 02.09  .02096 1.0180 103.2 25.6 39.0  71
2025 05 26 08  20 14 26.941   +28 45 55.38  .02115 1.0181 103.2 25.7 39.0  71
2025 05 26 09  20 14 31.603   +28 46 47.67  .02134 1.0181 103.2 25.7 39.0  71
2025 05 26 10  20 14 36.178   +28 47 38.96  .02153 1.0182 103.2 25.7 39.1  71
2025 05 26 11  20 14 40.668   +28 48 29.31  .02172 1.0183 103.2 25.7 39.1  71
2025 05 26 12  20 14 45.075   +28 49 18.71  .02191 1.0183 103.2 25.7 39.1  71
2025 05 26 13  20 14 49.401   +28 50 07.21  .02210 1.0184 103.2 25.8 39.2  71
2025 05 26 14  20 14 53.649   +28 50 54.83  .02228 1.0184 103.2 25.8 39.2  71
2025 05 26 15  20 14 57.819   +28 51 41.58  .02247 1.0185 103.2 25.8 39.2  71